Theta_e
307 307 308 308 308 308 308 309 309 309 310 311 311 312 313 313 314 314 314 313 312 311 312 311 312 313 313 313 314 314 307 309 310 310 313 313 313 312 313 314 315 315 315 315 320
307 308 308 308 308 308 308 309 309 309 310 310 311 312 312 313 314 315 315 315 314 311 311 312 312 314 315 315 314 309 306 309 309 309 313 313 313 313 313 313 313 314 316 315 319
308 308 308 308 308 308 308 308 308 309 309 310 311 311 312 313 315 316 314 313 314 312 311 313 313 315 314 315 314 309 308 310 314 315 314 313 313 314 312 311 314 315 316 316 318
309 309 309 309 309 309 309 309 308 308 309 309 310 311 312 313 313 314 310 311 312 312 312 313 314 314 312 313 314 312 312 311 314 315 313 312 313 313 313 315 315 315 315 316 316
309 309 309 309 309 309 309 309 309 309 309 309 309 310 311 313 315 317 314 311 311 311 312 313 314 313 311 314 314 312 312 314 315 315 315 314 313 312 314 315 315 315 315 315 316
310 310 310 310 310 310 309 309 309 309 309 309 309 309 310 312 314 317 317 311 311 312 313 314 314 314 314 313 312 314 314 314 314 314 314 314 313 314 315 316 315 315 315 315 315
310 310 310 310 310 310 310 309 309 309 309 309 309 309 309 310 312 316 317 315 311 313 314 314 314 314 314 313 313 313 313 311 311 314 313 314 312 311 315 315 315 315 315 314 314
309 308 308 309 309 309 309 309 309 309 309 309 309 309 309 310 311 315 316 315 314 312 313 313 313 315 315 313 312 311 309 312 311 312 313 312 310 310 312 314 315 315 314 314 314
319 316 312 308 307 307 307 307 308 309 308 308 308 309 309 310 311 313 316 316 316 314 314 314 313 313 313 309 310 308 311 311 311 310 311 310 311 311 312 311 313 314 314 314 314
323 323 321 317 309 308 309 316 320 318 315 309 308 309 309 311 312 313 315 316 315 313 313 313 313 308 305 309 311 311 312 310 311 312 310 310 308 307 312 311 312 312 313 313 314
323 323 322 323 321 320 321 322 318 317 314 309 309 308 310 312 312 314 315 315 314 312 310 310 309 310 310 308 310 309 311 312 310 311 311 309 308 309 312 310 310 313 314 314 314
321 322 322 321 321 322 322 321 319 318 315 317 316 312 309 312 313 315 315 314 312 310 309 309 309 309 309 308 311 311 312 311 309 310 311 310 310 309 309 309 312 314 314 315 316
317 318 321 323 322 322 322 322 318 315 313 313 314 313 313 311 312 314 315 314 311 309 309 310 312 309 310 310 311 310 310 310 312 311 308 309 309 308 309 310 312 313 314 315 316
314 315 318 322 320 322 322 322 320 313 308 308 309 312 311 311 312 312 315 314 311 311 309 310 310 311 310 311 310 311 308 310 311 313 312 310 312 309 310 309 308 313 314 316 316
311 313 315 319 319 320 320 321 316 313 323 310 309 311 312 311 310 312 313 313 310 310 310 311 310 311 312 311 309 312 309 309 311 311 312 310 312 310 310 311 311 312 315 317 317
309 310 313 317 318 319 320 320 313 314 319 312 313 312 311 312 310 310 312 312 311 310 311 310 310 310 311 310 310 308 310 309 308 309 313 311 311 312 311 312 311 312 315 316 316
307 308 311 316 316 317 317 313 314 316 313 315 313 311 311 311 310 310 310 310 311 312 312 311 310 310 311 311 310 311 312 313 312 311 315 309 311 314 310 310 309 311 315 315 315
305 306 308 312 315 316 315 314 316 314 313 312 312 312 313 311 310 309 309 311 309 310 308 311 311 310 308 311 312 310 312 313 312 310 310 309 312 312 309 310 313 313 315 314 314
302 305 305 307 312 315 315 315 318 312 311 313 314 315 314 313 310 309 309 309 310 309 311 310 310 309 308 310 311 311 312 312 312 296 307 310 309 309 308 309 310 312 313 315 315
298 302 303 304 307 311 314 315 316 311 311 313 316 315 315 313 313 310 308 308 310 309 309 310 312 309 309 310 310 310 310 313 309 311 309 311 311 313 314 311 310 308 313 315 316
298 301 302 303 305 309 312 313 314 313 313 314 315 316 313 313 312 310 311 310 307 309 310 310 312 310 309 309 310 311 312 311 311 310 310 309 313 308 311 311 311 310 315 315 316
298 300 302 305 307 306 308 308 309 313 313 312 314 315 314 312 312 311 311 311 310 309 311 309 311 313 310 308 306 308 310 310 311 310 308 309 315 309 309 308 309 313 315 315 316
299 300 301 305 306 305 305 306 308 310 314 314 314 314 313 315 317 311 310 310 310 310 311 311 314 312 313 311 307 309 308 310 308 305 310 311 316 306 307 306 311 312 314 315 315
299 297 298 298 302 304 304 305 306 308 308 312 314 314 315 315 315 315 312 310 310 311 313 313 313 314 317 313 310 309 308 309 312 313 315 313 314 313 311 309 308 312 313 314 316
299 298 299 299 299 300 303 306 305 306 308 310 310 312 313 314 316 315 313 312 311 310 311 314 314 313 314 311 310 309 309 310 312 313 313 315 313 314 312 310 312 316 314 315 316
298 297 298 299 301 299 300 304 306 307 307 307 309 310 311 313 313 314 315 314 314 310 311 313 315 312 315 313 311 312 309 309 311 312 312 313 313 314 313 313 311 314 316 315 315
297 298 298 298 297 298 300 302 301 302 303 305 307 307 310 312 312 312 309 312 314 315 313 314 313 314 318 314 312 315 314 315 313 311 312 313 314 312 313 311 312 313 314 315 316
Wind_Speed
8 7 6 5 5 4 2 1 1 1 2 3 4 4 4 5 4 3 4 5 5 6 6 4 3 2 2 4 3 3 5 3 6 7 4 10 4 7 6 8 11 10 6 5 20
9 7 5 4 2 2 2 2 1 2 3 4 5 5 5 5 5 5 5 6 6 6 6 5 3 2 1 2 2 4 4 9 6 5 3 8 6 14 6 7 9 10 13 10 20
11 9 7 4 3 1 1 1 2 2 3 4 5 5 6 5 3 3 5 6 7 7 7 5 4 2 2 2 2 3 4 5 3 3 4 7 5 10 8 4 13 19 17 15 22
10 9 8 6 3 2 1 2 3 4 4 4 5 5 5 3 3 1 2 3 6 7 7 6 4 2 2 2 2 3 2 2 2 1 3 5 5 6 14 8 9 15 15 18 23
8 8 7 6 5 3 2 3 4 5 6 6 6 6 5 2 3 4 1 1 5 6 7 6 5 4 4 3 3 2 1 1 1 1 1 3 5 7 13 19 10 10 16 20 23
10 10 8 7 6 5 4 3 4 6 7 8 8 7 6 2 5 7 4 3 4 6 7 6 4 4 6 3 3 2 1 1 2 2 3 2 2 3 7 16 16 15 17 22 24
11 10 11 10 9 7 6 5 5 5 7 9 10 9 9 9 5 7 6 6 6 5 5 5 5 2 5 4 3 2 1 4 3 3 3 3 6 10 19 11 15 18 20 24 26
8 8 10 11 10 9 7 6 7 7 8 8 10 11 7 8 8 8 8 7 7 6 5 4 3 4 3 7 5 4 5 2 2 5 2 5 8 9 11 20 20 20 22 25 27
6 5 6 8 9 8 6 5 5 6 8 9 10 6 7 7 9 12 12 9 7 6 5 5 5 3 4 5 4 6 3 3 7 8 2 4 6 4 4 13 23 24 26 28 29
7 5 4 4 6 5 4 1 5 8 10 9 12 6 9 4 6 9 12 10 7 8 5 4 2 4 3 4 5 6 4 4 4 2 2 4 12 11 13 10 20 23 27 31 34
17 12 9 7 5 5 4 4 4 3 3 5 2 4 5 3 6 6 12 11 8 6 5 2 4 7 13 7 3 5 4 4 4 3 4 8 10 11 20 17 26 31 29 32 37
16 17 18 17 19 19 16 9 7 6 9 13 18 21 22 11 5 10 13 10 6 5 5 4 6 10 5 5 4 3 3 5 5 3 3 8 14 13 10 16 29 35 37 38 37
13 15 19 15 19 20 17 13 8 5 4 9 19 20 25 23 13 15 20 10 4 5 7 8 5 4 7 4 5 4 6 5 6 3 4 5 8 9 8 22 33 36 38 38 42
13 13 13 16 14 17 16 10 7 2 2 6 6 8 17 17 9 21 24 10 4 11 7 6 4 5 4 5 8 7 8 6 4 2 5 1 6 7 6 10 10 31 36 44 46
12 12 13 12 10 8 5 11 7 5 4 1 2 2 7 11 6 10 28 15 8 8 7 8 8 6 6 7 8 6 5 7 3 3 3 3 1 7 2 7 13 20 37 41 40
12 12 11 12 16 13 10 12 15 4 8 2 4 3 4 2 2 4 11 4 4 5 3 4 1 7 7 2 5 8 6 6 4 2 5 10 8 10 6 10 7 15 33 33 31
14 13 12 13 17 14 13 21 2 4 4 4 4 5 5 5 2 2 6 5 7 5 10 2 5 3 4 6 3 2 6 2 3 1 10 2 4 18 4 8 12 14 32 25 18
17 16 16 19 11 15 27 3 7 7 7 3 3 2 6 5 2 2 6 5 7 2 2 10 10 11 7 9 9 9 8 6 8 5 6 3 8 7 10 16 27 29 33 30 25
15 15 21 19 20 22 23 9 7 7 6 6 1 4 4 3 5 4 8 5 7 12 9 6 7 2 3 3 11 7 8 4 1 2 2 6 8 9 11 12 14 25 23 27 21
11 14 24 16 15 20 9 11 5 8 6 4 9 6 8 6 7 8 9 6 6 14 8 4 5 1 2 2 2 6 6 3 2 3 5 6 6 8 5 11 13 10 26 27 17
8 5 2 10 17 11 10 5 8 9 11 7 10 7 8 8 9 7 8 4 7 6 24 7 5 2 1 7 9 3 5 2 4 5 5 3 8 8 13 12 9 10 11 8 6
7 3 7 17 9 6 11 6 15 8 18 9 1 8 11 9 8 8 13 9 17 11 12 9 4 13 12 2 3 3 5 8 5 5 3 3 16 5 9 7 11 14 7 5 5
6 6 6 16 8 11 5 9 15 6 6 4 12 7 3 11 9 9 6 7 17 11 12 7 3 2 7 1 2 5 5 6 5 3 11 6 20 4 4 7 6 11 10 7 4
7 2 12 17 14 5 16 16 8 11 20 17 5 6 6 5 10 6 9 6 21 16 20 18 6 8 12 4 5 6 7 12 13 7 23 12 32 10 4 7 8 14 15 12 12
12 5 8 4 11 11 8 4 15 12 13 13 12 21 14 7 12 16 13 3 5 9 9 8 10 14 21 7 5 7 6 12 20 28 9 32 18 29 16 12 17 23 21 21 28
11 5 6 4 5 7 14 19 16 12 2 7 19 17 19 21 18 3 11 8 6 2 9 8 6 8 17 18 8 7 8 16 22 22 20 29 27 13 16 18 16 30 38 38 38
15 17 6 10 8 4 6 9 18 16 23 20 13 10 13 17 17 18 21 20 12 16 8 9 6 6 13 10 8 9 27 25 19 19 20 21 37 11 21 16 26 29 37 40 36
Wind_Direction
170 169 164 163 159 163 165 154 264 299 294 293 298 311 302 290 272 245 225 220 218 207 199 194 176 143 135 116 102 112 65 169 198 151 231 168 155 176 187 160 178 201 223 218 188
164 164 165 163 165 170 162 193 220 258 283 297 312 317 306 309 291 240 239 227 222 212 202 194 162 165 88 81 70 89 114 213 190 190 205 191 179 169 171 180 214 219 222 220 194
167 166 166 167 162 165 259 283 278 281 293 298 307 312 318 315 304 255 245 237 221 210 200 178 173 153 103 87 40 124 169 188 211 230 223 191 202 179 165 229 218 218 215 211 197
180 177 175 174 182 193 239 314 325 323 314 309 309 312 308 294 200 229 239 217 210 203 191 182 166 141 85 114 82 95 105 160 173 222 164 173 173 205 207 220 237 232 230 215 204
215 204 196 195 194 217 278 314 325 329 325 320 318 314 299 262 249 218 220 153 187 186 176 171 158 146 146 135 100 81 176 175 246 260 273 194 221 226 239 235 245 232 221 218 214
225 227 228 224 229 224 233 276 309 322 324 323 320 313 308 272 246 225 220 187 167 169 161 161 152 136 118 100 100 119 143 304 278 263 260 227 246 237 247 237 237 236 229 222 222
235 240 245 243 240 247 261 269 282 301 311 319 319 318 296 264 238 225 219 206 188 176 158 145 139 146 135 109 108 99 16 335 228 229 246 207 293 239 241 250 239 236 229 225 225
222 236 245 250 252 253 255 272 288 297 301 307 312 314 277 261 239 220 211 202 202 202 185 170 153 131 81 121 37 51 49 24 284 163 258 148 263 269 261 242 241 237 231 229 229
208 215 232 240 246 247 254 263 289 303 300 302 303 300 272 257 241 220 217 217 220 205 190 181 177 116 115 82 18 9 229 199 313 201 133 171 257 267 270 231 241 239 239 238 237
231 221 229 219 213 217 189 202 324 305 283 282 266 283 248 253 244 223 216 212 193 187 160 171 114 73 39 103 217 204 218 247 242 210 186 234 257 271 264 255 252 253 248 246 246
242 249 241 232 218 194 205 322 314 316 273 235 268 233 281 280 241 224 205 192 170 166 154 78 103 207 210 194 127 138 179 222 249 241 184 238 261 260 270 254 255 253 252 251 250
242 245 252 253 261 261 275 294 271 272 295 252 251 252 255 260 250 219 192 184 171 164 118 46 226 230 128 166 175 145 185 248 281 246 198 273 265 262 234 248 248 252 252 249 252
248 249 243 254 258 267 267 267 269 287 263 264 240 239 238 237 231 216 191 187 145 132 187 172 217 133 153 160 166 212 192 220 228 330 244 315 279 253 255 239 252 254 255 255 253
251 248 245 239 253 252 254 253 228 90 323 265 225 233 215 210 239 221 201 177 180 193 167 235 230 152 177 194 157 239 206 174 184 63 251 122 287 281 247 246 233 251 254 256 255
249 248 235 235 243 230 257 208 179 133 264 276 180 269 181 184 150 188 185 196 171 171 140 236 177 178 191 200 168 224 131 160 136 174 323 176 256 251 301 266 258 250 253 257 260
237 238 230 226 241 240 220 188 153 100 228 310 150 155 112 300 50 108 174 160 149 129 274 236 208 171 198 115 159 150 83 58 53 98 278 179 165 261 201 218 260 258 260 263 266
233 234 214 210 236 240 206 145 124 219 328 236 195 169 170 167 107 117 155 180 167 144 225 113 215 188 165 93 53 143 107 305 327 39 241 68 168 251 306 258 225 246 265 274 273
234 237 228 214 218 223 174 178 229 187 217 44 105 113 172 153 178 134 129 204 253 113 98 202 258 164 192 191 165 200 166 172 210 202 263 136 228 249 242 260 252 257 262 269 272
257 246 243 224 214 207 185 221 199 186 193 169 129 158 230 162 164 145 196 215 206 180 192 172 261 221 165 154 157 195 208 240 82 94 359 232 278 293 255 267 263 254 261 266 271
265 272 251 230 213 210 228 243 218 189 169 180 211 188 184 192 170 180 184 210 214 193 172 227 282 102 324 134 21 175 165 79 340 196 249 265 264 227 272 245 253 262 257 268 277
253 290 284 205 199 194 233 214 246 215 196 195 222 208 216 176 194 200 213 240 206 183 190 195 173 231 120 216 168 137 207 175 141 161 193 287 262 214 220 223 226 246 252 266 264
211 224 205 180 180 205 226 205 233 257 231 227 222 253 219 182 197 204 215 218 188 144 170 208 195 245 224 254 252 286 239 167 150 219 242 170 268 159 219 271 238 248 266 275 259
204 228 210 200 215 219 240 233 241 256 201 238 224 212 201 212 221 198 211 214 178 158 165 171 148 292 311 345 327 218 201 187 114 77 226 165 256 328 24 312 245 247 252 247 251
183 241 224 234 254 247 230 243 242 245 239 245 235 261 250 226 222 256 222 222 201 198 191 150 161 195 231 194 137 190 200 191 194 211 243 230 258 261 297 260 287 275 263 265 261
200 220 203 206 232 234 262 262 228 241 229 226 243 243 231 255 244 242 261 276 221 212 181 149 214 215 242 246 176 195 192 200 208 230 204 252 246 255 240 254 261 264 270 272 268
215 188 205 235 191 211 233 244 247 255 241 231 232 249 239 240 230 264 248 229 224 160 175 169 236 191 250 243 209 241 217 218 218 233 239 254 260 270 248 251 246 252 257 265 269
228 225 219 228 217 171 212 239 247 260 268 258 279 294 274 250 258 275 294 284 267 226 205 188 197 188 240 231 189 234 238 239 229 231 223 243 250 245 262 247 247 254 258 262 265